{"data":{"norad_id":49003,"intl_designator":"2021-061A","name":"JILIN-1 KUANFU-01B","alt_names":[],"object_type":"PAYLOAD","status":"ACTIVE","operator":null,"country":"PRC","launch_date":"2021-07-03","launch_site_code":"TAISC","launch_vehicle":null,"mission":null,"orbit_class":"UNKNOWN","rcs_meters":null,"size_class":null,"mass_kg":null,"dimensions":null,"purposes":[],"wikipedia_slug":null,"has_3d_model":false,"image_url":null,"decayed_at":null,"tle_current":{"epoch":"2026-05-25T04:15:14.341248Z","epoch_age_seconds":52940,"freshness":"FRESH","line1":"1 49003U 21061A   26145.17724932  .00002416  00000+0  15304-3 0  9997","line2":"2 49003  97.5204 221.7954 0008724 140.8853 219.3009 15.09874018269874","mean_motion":15.09874018,"eccentricity":0.0008724,"inclination_deg":97.5204,"raan_deg":221.7954,"arg_perigee_deg":140.8853,"mean_anomaly_deg":219.3009,"bstar":0.00015304,"rev_number":26987,"period_min":95.372195483398,"perigee_km":530.55221034048,"apogee_km":542.61701661167,"semimajor_km":6914.7216134761,"source":"CELESTRAK","updated_at":"2026-05-25T13:37:57.012142Z"}}}